User: anonymous   Login
Location: Irma
(52.9170°N, 111.2330°W)
Time: 17:28:25
(UTC-06:00)
Language:

Cosmos 2279 Rocket - Orbit

View from above orbital plane
View from above orbital plane
View from above satellite
View from above satellite

Ground track
Ground track

The orbit data is extracted from the following two-line orbital elements,

1 23093U 94024B   18142.59390262 +.00000039 +00000-0 +24077-4 0  9994
2 23093 082.9487 222.0357 0011364 128.8182 231.3993 13.77760261677924
Epoch (UTC): 22 May 2018 14:15:13
Eccentricity: 0.0011364
inclination: 82.9487°
perigee height: 963 km
apogee height: 980 km
right ascension of ascending node: 222.0357°
argument of perigee: 128.8182°
revolutions per day: 13.77760261
mean anomaly at epoch: 231.3993°
orbit number at epoch: 67792

The dashed part of the orbit path shows where the satellite is in the earth's shadow,  

DLR